Date String (YYYY-MM-DD hh:mm:ss) UTC,Instrument flags,absolute air pressure of the measurement (hPa),sample flow rate (lpm),inlet stack bypass flow (lpm),air temperature of the measurement (°C),ambient temperature measured by the external sensor (°C),aerosol sample conditioner tube jacket temperature (°C),OPC LED temperature (°C),internal box temperature (°C),relative humidity of the measurement (%),span deviation,mass concentration of particles derived from Lorenz-Mie calculation of OPC scattering (μg/m³),mass concentration of particles derived from Lorenz-Mie calculation of OPC scattering (μg/m³),mass concentration of particles derived from Lorenz-Mie calculation of OPC scattering (μg/m³)
DateTimeUTC,F1_M11,P_M11,Q1_M11,Q2_M11,T1_M11,T2_M11,T3_M11,T4_M11,T5_M11,U1_M11,ZSPAN_M11,X0_M11,X2_M11,X1_M11
2023-10-19 20:00:00,SystemResetWarning,0833.9,4.99,000.00,028.3,025.7,000.0,036.6,030.1,15.4,0000.0,0012.22,0002.37,0001.33
2023-10-19 20:01:00,SystemResetWarning,0833.9,5.01,000.00,028.2,024.3,000.0,036.6,029.8,15.6,0000.0,0010.92,0002.36,0001.34
2023-10-19 20:02:00,SystemResetWarning,0833.9,5.01,000.00,028.2,024.4,000.0,036.5,029.8,15.8,0000.0,0010.76,0002.33,0001.33
2023-10-19 20:03:00,SystemResetWarning,0833.9,5.00,000.00,028.1,024.7,000.0,036.5,029.6,16.1,0000.0,0010.83,0002.33,0001.33
2023-10-19 20:04:00,SystemResetWarning,0833.8,5.01,000.00,028.1,025.1,000.0,036.5,029.7,16.4,0000.0,0010.29,0002.38,0001.32
2023-10-19 20:05:00,SystemResetWarning,0833.9,4.99,000.00,028.1,025.6,000.0,036.5,029.7,16.1,0000.0,0010.78,0002.42,0001.32
2023-10-19 20:06:00,SystemResetWarning,0833.9,4.99,000.00,028.1,026.0,000.0,036.6,029.8,16.1,0000.0,0009.97,0002.41,0001.31
2023-10-19 20:07:00,SystemResetWarning,0833.8,5.01,000.00,028.1,026.3,000.0,036.6,029.9,16.0,0000.0,0009.88,0002.42,0001.33
2023-10-19 20:08:00,SystemResetWarning,0833.9,5.01,000.00,028.2,026.6,000.0,036.6,030.0,15.8,0000.0,0009.59,0002.40,0001.35
2023-10-19 20:09:00,SystemResetWarning,0833.9,5.00,000.00,028.2,026.9,000.0,036.6,030.0,16.0,0000.0,0010.20,0002.50,0001.37
2023-10-19 20:10:00,SystemResetWarning,0833.9,4.98,000.00,028.2,027.1,000.0,036.6,030.1,16.1,0000.0,0011.01,0002.66,0001.39
2023-10-19 20:11:00,SystemResetWarning,0833.8,5.01,000.00,028.3,027.2,000.0,036.7,030.2,15.5,0000.0,0010.43,0002.63,0001.40
2023-10-19 20:12:00,SystemResetWarning,0833.8,5.00,000.00,028.3,026.2,000.0,036.6,030.1,15.5,0000.0,0011.26,0002.64,0001.41
2023-10-19 20:13:00,SystemResetWarning,0833.8,5.00,000.00,028.3,024.5,000.0,036.5,029.9,15.6,0000.0,0011.30,0002.67,0001.43
2023-10-19 20:14:00,SystemResetWarning,0833.8,5.02,000.00,028.2,024.3,000.0,036.5,029.8,15.5,0000.0,0011.14,0002.65,0001.44
2023-10-19 20:15:00,SystemResetWarning,0833.8,5.00,000.00,028.1,024.7,000.0,036.5,029.7,15.6,0000.0,0010.89,0002.66,0001.44
2023-10-19 20:16:00,SystemResetWarning,0833.8,5.00,000.00,028.1,025.1,000.0,036.5,029.6,15.7,0000.0,0010.28,0002.59,0001.44
2023-10-19 20:17:00,SystemResetWarning,0833.8,5.00,000.00,028.1,025.5,000.0,036.5,029.7,15.7,0000.0,0011.29,0002.63,0001.45
2023-10-19 20:18:00,SystemResetWarning,0833.8,5.00,000.00,028.1,025.9,000.0,036.5,029.8,15.8,0000.0,0011.51,0002.69,0001.44
2023-10-19 20:19:00,SystemResetWarning,0833.8,4.99,000.00,028.1,026.3,000.0,036.6,029.9,15.7,0000.0,0011.34,0002.68,0001.43
2023-10-19 20:20:00,SystemResetWarning,0833.8,5.00,000.00,028.1,026.6,000.0,036.6,029.9,15.5,0000.0,0010.90,0002.57,0001.42
2023-10-19 20:21:00,SystemResetWarning,0833.8,5.00,000.00,028.2,026.8,000.0,036.6,030.0,15.4,0000.0,0009.71,0002.44,0001.41
2023-10-19 20:22:00,SystemResetWarning,0833.8,4.99,000.00,028.2,027.1,000.0,036.6,030.1,15.4,0000.0,0009.70,0002.46,0001.41
2023-10-19 20:23:00,SystemResetWarning,0833.8,5.00,000.00,028.3,027.3,000.0,036.6,030.2,15.3,0000.0,0009.06,0002.52,0001.41
2023-10-19 20:24:00,SystemResetWarning,0833.8,4.99,000.00,028.3,026.7,000.0,036.6,030.2,15.3,0000.0,0009.22,0002.56,0001.39
2023-10-19 20:25:00,SystemResetWarning,0833.7,5.00,000.00,028.3,024.8,000.0,036.6,030.0,15.3,0000.0,0009.30,0002.58,0001.38
2023-10-19 20:26:00,SystemResetWarning,0833.7,5.01,000.00,028.2,024.3,000.0,036.5,029.8,15.4,0000.0,0009.57,0002.59,0001.39
2023-10-19 20:27:00,SystemResetWarning,0833.7,5.00,000.00,028.1,024.5,000.0,036.5,029.7,15.7,0000.0,0009.97,0002.62,0001.40
2023-10-19 20:28:00,SystemResetWarning,0833.7,5.00,000.00,028.1,024.9,000.0,036.5,029.6,16.1,0000.0,0009.16,0002.59,0001.39
2023-10-19 20:29:00,SystemResetWarning,0833.7,4.99,000.00,028.1,025.3,000.0,036.5,029.7,15.8,0000.0,0009.39,0002.54,0001.39
2023-10-19 20:30:00,SystemResetWarning,0833.7,5.00,000.00,028.1,025.8,000.0,036.5,029.8,15.8,0000.0,0009.72,0002.58,0001.40
2023-10-19 20:31:00,SystemResetWarning,0833.8,5.00,000.00,028.1,026.1,000.0,036.5,029.8,15.4,0000.0,0009.35,0002.64,0001.40
2023-10-19 20:32:00,SystemResetWarning,0833.8,5.00,000.00,028.1,026.5,000.0,036.6,029.9,15.2,0000.0,0009.47,0002.66,0001.41
2023-10-19 20:33:00,SystemResetWarning,0833.8,5.00,000.00,028.2,026.8,000.0,036.6,030.0,15.2,0000.0,0010.15,0002.69,0001.40
2023-10-19 20:34:00,SystemResetWarning,0833.7,4.99,000.00,028.2,027.0,000.0,036.6,030.1,15.2,0000.0,0010.88,0002.60,0001.40
2023-10-19 20:35:00,SystemResetWarning,0833.7,4.99,000.00,028.3,027.2,000.0,036.6,030.2,15.2,0000.0,0010.59,0002.54,0001.40
2023-10-19 20:36:00,SystemResetWarning,0833.7,4.99,000.00,028.3,027.0,000.0,036.6,030.2,15.2,0000.0,0011.21,0002.55,0001.41
2023-10-19 20:37:00,SystemResetWarning,0833.7,5.00,000.00,028.3,025.3,000.0,036.6,030.0,14.9,0000.0,0011.54,0002.55,0001.40
2023-10-19 20:38:00,SystemResetWarning,0833.7,5.01,000.00,028.2,024.3,000.0,036.5,029.8,15.0,0000.0,0011.33,0002.61,0001.40
2023-10-19 20:39:00,SystemResetWarning,0833.7,5.01,000.00,028.2,024.5,000.0,036.5,029.7,15.1,0000.0,0011.82,0002.70,0001.40
2023-10-19 20:40:00,SystemResetWarning,0833.7,5.00,000.00,028.1,024.8,000.0,036.5,029.6,15.1,0000.0,0011.28,0002.72,0001.41
2023-10-19 20:41:00,SystemResetWarning,0833.7,5.00,000.00,028.1,025.3,000.0,036.5,029.6,15.2,0000.0,0010.62,0002.75,0001.41
2023-10-19 20:42:00,SystemResetWarning,0833.7,5.00,000.00,028.1,025.7,000.0,036.5,029.7,15.2,0000.0,0010.85,0002.80,0001.42
2023-10-19 20:43:00,SystemResetWarning,0833.7,5.00,000.00,028.1,026.1,000.0,036.5,029.8,15.1,0000.0,0010.97,0002.79,0001.42
2023-10-19 20:44:00,SystemResetWarning,0833.7,5.00,000.00,028.1,026.4,000.0,036.5,029.9,15.3,0000.0,0010.77,0002.78,0001.43
2023-10-19 20:45:00,SystemResetWarning,0833.7,5.00,000.00,028.2,026.7,000.0,036.6,030.0,15.3,0000.0,0010.16,0002.90,0001.43
2023-10-19 20:46:00,SystemResetWarning,0833.7,5.00,000.00,028.2,027.0,000.0,036.6,030.1,14.9,0000.0,0010.74,0002.93,0001.43
2023-10-19 20:47:00,SystemResetWarning,0833.6,4.98,000.00,028.3,027.0,000.0,036.6,030.2,14.9,0000.0,0010.58,0002.98,0001.43
2023-10-19 20:48:00,SystemResetWarning,0833.7,4.99,000.00,028.3,025.6,000.0,036.6,030.0,15.0,0000.0,0010.24,0002.96,0001.43
2023-10-19 20:49:00,SystemResetWarning,0833.7,5.00,000.00,028.2,024.3,000.0,036.5,029.8,15.1,0000.0,0011.29,0002.90,0001.42
2023-10-19 20:50:00,SystemResetWarning,0833.7,5.01,000.00,028.1,024.4,000.0,036.4,029.7,15.1,0000.0,0011.09,0002.80,0001.40
2023-10-19 20:51:00,SystemResetWarning,0833.7,5.01,000.00,028.0,024.8,000.0,036.4,029.6,15.0,0000.0,0011.18,0002.85,0001.38
2023-10-19 20:52:00,SystemResetWarning,0833.7,5.00,000.00,028.0,025.2,000.0,036.5,029.6,15.1,0000.0,0011.58,0002.80,0001.36
2023-10-19 20:53:00,SystemResetWarning,0833.6,5.00,000.00,028.0,025.6,000.0,036.5,029.7,15.5,0000.0,0011.94,0002.77,0001.35
2023-10-19 20:54:00,SystemResetWarning,0833.7,5.00,000.00,028.0,026.0,000.0,036.5,029.8,15.3,0000.0,0012.97,0002.80,0001.34
2023-10-19 20:55:00,SystemResetWarning,0833.7,5.00,000.00,028.1,026.4,000.0,036.5,029.9,15.1,0000.0,0013.54,0002.79,0001.31
2023-10-19 20:56:00,SystemResetWarning,0833.7,5.00,000.00,028.1,026.6,000.0,036.5,029.9,15.1,0000.0,0013.30,0002.66,0001.30
2023-10-19 20:57:00,SystemResetWarning,0833.7,5.00,000.00,028.2,026.9,000.0,036.5,030.0,15.0,0000.0,0012.66,0002.62,0001.30
2023-10-19 20:58:00,SystemResetWarning,0833.7,5.01,000.00,028.2,027.1,000.0,036.6,030.1,15.0,0000.0,0013.04,0002.66,0001.29
2023-10-19 20:59:00,SystemResetWarning,0833.7,4.98,000.00,028.3,026.9,000.0,036.6,030.1,14.9,0000.0,0012.84,0002.62,0001.27
